TimeCDT,TemperatureF,Dew PointF,Humidity,Sea Level PressureIn,VisibilityMPH,Wind Direction,Wind SpeedMPH,Gust SpeedMPH,PrecipitationIn,Events,Conditions,WindDirDegrees,DateUTC
12:15 AM,68.5,64.8,88,29.98,10.0,South,4.6,-,N/A,,Clear,180,2013-08-02 05:15:00
12:35 AM,68.2,64.9,89,29.98,10.0,SSW,5.8,-,N/A,,Clear,200,2013-08-02 05:35:00
12:55 AM,70.3,64.6,82,29.97,10.0,SSW,5.8,-,N/A,,Clear,200,2013-08-02 05:55:00
1:15 AM,70.0,64.4,82,29.97,10.0,South,4.6,-,N/A,,Clear,190,2013-08-02 06:15:00
1:35 AM,69.6,64.4,83,29.97,10.0,South,3.5,-,N/A,,Clear,190,2013-08-02 06:35:00
1:55 AM,68.0,64.4,88,29.97,10.0,South,3.5,-,N/A,,Clear,180,2013-08-02 06:55:00
2:15 AM,67.5,64.2,89,29.96,10.0,South,4.6,-,N/A,,Scattered Clouds,190,2013-08-02 07:15:00
2:35 AM,69.3,64.8,86,29.96,10.0,SSW,5.8,-,N/A,,Mostly Cloudy,200,2013-08-02 07:35:00
2:55 AM,71.1,64.4,79,29.96,10.0,SSW,5.8,-,N/A,,Overcast,200,2013-08-02 07:55:00
3:15 AM,71.8,64.2,77,29.95,10.0,SSW,8.1,-,N/A,,Overcast,210,2013-08-02 08:15:00
3:35 AM,72.5,63.7,74,29.95,10.0,SSW,8.1,-,N/A,,Overcast,200,2013-08-02 08:35:00
3:55 AM,73.0,63.3,71,29.95,10.0,SSW,8.1,-,N/A,,Overcast,210,2013-08-02 08:55:00
4:15 AM,73.4,63.0,70,29.95,10.0,SSW,9.2,-,N/A,,Overcast,210,2013-08-02 09:15:00
4:35 AM,72.3,63.5,74,29.96,10.0,SW,5.8,-,N/A,,Mostly Cloudy,220,2013-08-02 09:35:00
4:55 AM,72.5,63.5,73,29.96,10.0,SW,8.1,-,N/A,,Mostly Cloudy,220,2013-08-02 09:55:00
5:15 AM,72.5,63.1,72,29.95,10.0,SW,8.1,-,N/A,,Mostly Cloudy,220,2013-08-02 10:15:00
5:35 AM,72.7,63.3,72,29.95,10.0,SSW,8.1,-,N/A,,Mostly Cloudy,210,2013-08-02 10:35:00
5:55 AM,72.1,63.5,74,29.94,10.0,SSW,6.9,-,N/A,,Mostly Cloudy,210,2013-08-02 10:55:00
6:15 AM,72.1,63.5,74,29.95,10.0,SSW,8.1,-,N/A,,Overcast,210,2013-08-02 11:15:00
6:35 AM,72.5,63.9,74,29.95,10.0,SSW,6.9,-,N/A,,Overcast,210,2013-08-02 11:35:00
6:55 AM,72.5,64.4,76,29.95,10.0,SW,5.8,-,N/A,,Overcast,220,2013-08-02 11:55:00
7:15 AM,72.5,64.6,76,29.96,10.0,SW,6.9,-,N/A,,Overcast,230,2013-08-02 12:15:00
7:35 AM,72.5,65.3,78,29.95,10.0,SW,6.9,-,N/A,,Overcast,230,2013-08-02 12:35:00
7:55 AM,72.9,65.7,78,29.96,10.0,SW,6.9,-,N/A,,Mostly Cloudy,230,2013-08-02 12:55:00
8:15 AM,73.4,66.2,78,29.96,10.0,WSW,6.9,-,N/A,,Clear,240,2013-08-02 13:15:00
8:35 AM,74.3,66.7,77,29.96,10.0,SW,5.8,-,N/A,,Mostly Cloudy,230,2013-08-02 13:35:00
8:55 AM,75.2,67.1,76,29.96,10.0,SW,5.8,-,N/A,,Mostly Cloudy,230,2013-08-02 13:55:00
9:15 AM,75.2,67.3,76,29.96,10.0,SW,6.9,-,N/A,,Scattered Clouds,220,2013-08-02 14:15:00
9:35 AM,75.2,67.5,77,29.97,10.0,WSW,8.1,-,N/A,,Scattered Clouds,240,2013-08-02 14:35:00
9:55 AM,76.1,68.0,76,29.97,10.0,SW,8.1,-,N/A,,Mostly Cloudy,230,2013-08-02 14:55:00
10:15 AM,76.1,67.6,75,29.96,10.0,WSW,4.6,-,N/A,,Mostly Cloudy,250,2013-08-02 15:15:00
10:35 AM,77.2,68.7,75,29.97,10.0,SW,8.1,-,N/A,,Mostly Cloudy,220,2013-08-02 15:35:00
10:55 AM,77.4,68.4,74,29.96,10.0,SW,6.9,-,N/A,,Mostly Cloudy,220,2013-08-02 15:55:00
11:15 AM,78.4,68.5,72,29.97,10.0,SW,6.9,-,N/A,,Mostly Cloudy,220,2013-08-02 16:15:00
11:35 AM,80.6,69.3,68,29.97,10.0,WSW,5.8,-,N/A,,Scattered Clouds,240,2013-08-02 16:35:00
11:55 AM,81.7,69.4,66,29.97,10.0,WSW,4.6,-,N/A,,Scattered Clouds,250,2013-08-02 16:55:00
12:15 PM,82.4,69.3,64,29.97,10.0,SW,4.6,-,N/A,,Clear,220,2013-08-02 17:15:00
12:35 PM,82.4,68.9,64,29.97,10.0,SW,4.6,-,N/A,,Mostly Cloudy,220,2013-08-02 17:35:00
12:55 PM,83.8,68.7,60,29.96,10.0,SSW,3.5,-,N/A,,Scattered Clouds,210,2013-08-02 17:55:00
1:15 PM,84.2,65.8,54,29.95,10.0,SW,4.6,-,N/A,,Scattered Clouds,230,2013-08-02 18:15:00
1:35 PM,85.3,66.4,53,29.95,10.0,SW,6.9,-,N/A,,Scattered Clouds,230,2013-08-02 18:35:00
1:55 PM,85.3,66.6,53,29.95,10.0,SW,5.8,-,N/A,,Scattered Clouds,220,2013-08-02 18:55:00
2:15 PM,85.6,66.9,53,29.94,10.0,WSW,6.9,-,N/A,,Scattered Clouds,240,2013-08-02 19:15:00
2:35 PM,85.3,66.7,54,29.94,10.0,WSW,4.6,-,N/A,,Scattered Clouds,240,2013-08-02 19:35:00
2:55 PM,86.2,67.3,53,29.93,10.0,SW,8.1,-,N/A,,Mostly Cloudy,220,2013-08-02 19:55:00
3:15 PM,85.5,66.9,54,29.93,10.0,WSW,6.9,-,N/A,,Mostly Cloudy,240,2013-08-02 20:15:00
3:35 PM,85.5,68.7,57,29.92,10.0,SW,6.9,-,N/A,,Overcast,220,2013-08-02 20:35:00
3:55 PM,85.6,67.3,54,29.92,10.0,SW,11.5,-,N/A,,Mostly Cloudy,230,2013-08-02 20:55:00
4:15 PM,85.3,68.2,56,29.92,10.0,SW,8.1,-,N/A,,Mostly Cloudy,220,2013-08-02 21:15:00
4:35 PM,85.5,68.4,56,29.92,10.0,SSW,10.4,-,N/A,,Mostly Cloudy,210,2013-08-02 21:35:00
4:55 PM,85.3,68.9,58,29.92,10.0,SW,8.1,-,N/A,,Mostly Cloudy,220,2013-08-02 21:55:00
5:15 PM,84.0,68.7,60,29.92,10.0,SW,6.9,-,N/A,,Scattered Clouds,230,2013-08-02 22:15:00
5:35 PM,84.9,69.3,59,29.92,10.0,SW,5.8,-,N/A,,Scattered Clouds,230,2013-08-02 22:35:00
5:55 PM,84.6,68.5,58,29.92,10.0,WSW,5.8,-,N/A,,Scattered Clouds,240,2013-08-02 22:55:00
6:15 PM,84.9,70.0,61,29.92,10.0,WSW,4.6,-,N/A,,Mostly Cloudy,250,2013-08-02 23:15:00
6:35 PM,83.7,69.8,63,29.92,10.0,WSW,4.6,-,N/A,,Mostly Cloudy,240,2013-08-02 23:35:00
6:55 PM,81.7,70.2,68,29.93,10.0,SSW,8.1,-,N/A,,Mostly Cloudy,210,2013-08-02 23:55:00
7:15 PM,80.4,67.8,65,29.94,10.0,SW,13.8,18.4,N/A,,Mostly Cloudy,230,2013-08-03 00:15:00
7:35 PM,77.9,68.0,71,29.94,10.0,SW,8.1,-,N/A,,Scattered Clouds,220,2013-08-03 00:35:00
7:55 PM,76.5,68.9,77,29.95,10.0,SW,5.8,-,N/A,,Scattered Clouds,220,2013-08-03 00:55:00
8:15 PM,75.9,70.0,82,29.95,10.0,WSW,8.1,-,N/A,,Scattered Clouds,240,2013-08-03 01:15:00
8:35 PM,75.2,70.7,86,29.95,10.0,SW,5.8,-,N/A,,Scattered Clouds,220,2013-08-03 01:35:00
8:55 PM,74.7,71.1,88,29.95,10.0,SSW,5.8,-,N/A,,Clear,200,2013-08-03 01:55:00
9:15 PM,74.5,70.9,88,29.95,10.0,SW,5.8,-,N/A,,Scattered Clouds,220,2013-08-03 02:15:00
9:35 PM,74.1,70.7,89,29.95,10.0,SW,4.6,-,N/A,,Mostly Cloudy,230,2013-08-03 02:35:00
9:55 PM,73.8,70.7,90,29.97,10.0,WNW,4.6,-,N/A,,Mostly Cloudy,290,2013-08-03 02:55:00
10:15 PM,73.6,70.0,88,29.98,10.0,West,4.6,-,N/A,,Mostly Cloudy,260,2013-08-03 03:15:00
10:35 PM,73.8,70.0,88,29.98,10.0,Calm,Calm,-,N/A,,Overcast,0,2013-08-03 03:35:00
10:55 PM,73.4,70.0,89,29.98,10.0,Calm,Calm,-,N/A,,Overcast,0,2013-08-03 03:55:00
11:15 PM,73.4,70.3,90,29.99,10.0,Calm,Calm,-,N/A,,Overcast,0,2013-08-03 04:15:00
11:35 PM,73.6,70.7,91,29.99,10.0,NNW,4.6,-,N/A,,Overcast,330,2013-08-03 04:35:00
11:55 PM,73.9,70.3,88,30.00,10.0,WNW,4.6,-,N/A,,Overcast,290,2013-08-03 04:55:00